CW9825 Weather Reports


time (UTC)temp
C
wind
direction
speed
KPH
gust
KPH
rain 1hr
cm
rain 24hr
cm
rain mn
cm
humidity
%
barometer
mb
20260505173044 5 177 17.7 33.8 0.00 0.00 0.00 53 1012.5
20260505172541 5 301 12.9 33.8 0.00 0.00 0.00 53 1012.4
20260505172042 4 9 16.1 33.8 0.00 0.00 0.00 54 1012.4
20260505171541 5 223 12.9 35.4 0.00 0.00 0.00 54 1012.2
20260505171041 5 17 9.7 35.4 0.00 0.00 0.00 53 1012.4
20260505170539 5 313 14.5 33.8 0.00 0.00 0.00 54 1012.3
20260505170048 5 337 17.7 35.4 0.00 0.00 0.00 55 1012.2
20260505165537 5 292 12.9 35.4 0.00 0.00 0.00 55 1012.2
20260505165037 5 319 17.7 27.4 0.00 0.00 0.00 56 1012.3
20260505164539 4 333 11.3 30.6 0.00 0.00 0.00 56 1012.3
20260505164039 4 291 20.9 30.6 0.00 0.00 0.00 56 1012.5
20260505163535 4 312 12.9 30.6 0.00 0.00 0.00 57 1012.4
20260505163039 5 321 16.1 30.6 0.00 0.00 0.00 57 1012.4
20260505162534 4 330 12.9 29.0 0.00 0.00 0.00 57 1012.3
20260505162034 4 331 12.9 32.2 0.00 0.00 0.00 56 1012.4
20260505161533 4 321 12.9 35.4 0.00 0.00 0.00 57 1012.3
20260505161035 4 261 16.1 35.4 0.00 0.00 0.00 57 1012.3
20260505160533 4 300 16.1 32.2 0.00 0.00 0.00 56 1012.2
20260505153034 4 284 14.5 30.6 0.00 0.00 0.00 60 1011.9
20260505152529 4 342 16.1 30.6 0.00 0.00 0.00 60 1011.8
20260505152026 4 313 12.9 32.2 0.00 0.00 0.00 60 1011.6
20260505151529 4 11 12.9 25.7 0.00 0.00 0.00 60 1011.5
20260505151025 4 319 16.1 25.7 0.00 0.00 0.00 60 1011.4
20260505150524 4 313 11.3 25.7 0.00 0.00 0.00 61 1011.4
20260505140511 2 336 9.7 20.9 0.00 0.00 0.00 66 1011.1
20260505124554 1 21 6.4 17.7 0.00 0.00 0.00 69 1010.2
20260505124054 1 12 4.8 16.1 0.00 0.00 0.00 70 1010.1
20260505123553 1 23 6.4 16.1 0.00 0.00 0.00 69 1010.0
20260505123109 1 13 6.4 12.9 0.00 0.00 0.00 70 1010.0
20260505122551 1 11 6.4 16.1 0.00 0.00 0.00 71 1009.9
20260505122049 0 9 6.4 16.1 0.00 0.00 0.00 72 1009.8
20260505121548 0 360 4.8 14.5 0.00 0.00 0.00 74 1009.7
20260505121047 0 5 4.8 12.9 0.00 0.00 0.00 75 1009.7
20260505120547 0 331 1.6 9.7 0.00 0.00 0.00 76 1009.6
20260505120047 0 331 1.6 8.0 0.00 0.00 0.00 77 1009.6
20260505115545 0 331 0.0 4.8 0.00 0.00 0.00 77 1009.5
20260505115045 0 331 3.2 4.8 0.00 0.00 0.00 77 1009.4
20260505114606 0 331 0.0 4.8 0.00 0.00 0.00 78 1009.4
20260505114045 0 331 0.0 6.4 0.00 0.00 0.00 79 1009.4
20260505113546 0 331 0.0 6.4 0.00 0.00 0.00 79 1009.5
20260505113043 0 331 1.6 8.0 0.00 0.00 0.00 80 1009.4
20260505112542 0 331 1.6 8.0 0.00 0.00 0.00 81 1009.4
20260505112043 0 331 3.2 8.0 0.00 0.00 0.00 81 1009.4
20260505111555 0 331 3.2 8.0 0.00 0.00 0.00 81 1009.4
20260505111043 0 332 3.2 6.4 0.00 0.00 0.00 82 1009.4
20260505110543 0 332 0.0 4.8 0.00 0.00 0.00 82 1009.3
20260505102037 0 332 0.0 0.0 0.00 0.00 0.00 82 1009.4
20260505101537 0 332 0.0 0.0 0.00 0.00 0.00 82 1009.3
20260505101038 0 332 0.0 0.0 0.00 0.00 0.00 82 1009.3
20260505100537 0 332 0.0 0.0 0.00 0.00 0.00 82 1009.3
20260505100037 0 332 0.0 0.0 0.00 0.00 0.00 82 1009.4
20260505095536 0 332 0.0 0.0 0.00 0.00 0.00 82 1009.3
20260505095038 0 332 0.0 0.0 0.00 0.00 0.00 82 1009.3
20260505094539 0 332 0.0 0.0 0.00 0.00 0.00 82 1009.4
20260505094036 0 332 0.0 0.0 0.00 0.00 0.00 82 1009.3
20260505093534 0 332 0.0 0.0 0.00 0.00 0.00 82 1009.2
20260505093036 0 332 0.0 0.0 0.00 0.00 0.00 82 1009.3
20260505092534 0 332 0.0 0.0 0.00 0.00 0.00 82 1009.1
20260505092034 0 332 0.0 4.8 0.00 0.00 0.00 81 1009.1
20260505091535 0 332 1.6 4.8 0.00 0.00 0.00 81 1009.2
20260505091031 0 332 0.0 4.8 0.00 0.00 0.00 81 1009.0
20260505090533 0 332 1.6 4.8 0.00 0.00 0.00 80 1009.0
20260505090036 0 332 1.6 6.4 0.00 0.00 0.00 80 1008.9
20260505085530 0 332 1.6 6.4 0.00 0.00 0.00 80 1008.9
20260505085030 0 332 1.6 6.4 0.00 0.00 0.00 80 1008.8
20260505084531 0 332 1.6 6.4 0.00 0.00 0.00 80 1008.7
20260505084029 0 332 0.0 4.8 0.00 0.00 0.00 80 1008.9
20260505083528 0 332 1.6 4.8 0.00 0.00 0.00 80 1008.9
20260505083040 0 332 0.0 3.2 0.00 0.00 0.00 80 1008.7
20260505082528 0 332 0.0 3.2 0.00 0.00 0.00 80 1008.7
20260505082028 0 332 0.0 4.8 0.00 0.00 0.00 80 1008.7
20260505081533 0 332 1.6 8.0 0.00 0.00 0.00 80 1008.9
20260505081028 0 332 3.2 8.0 0.00 0.00 0.00 80 1008.8
20260505080527 0 336 3.2 6.4 0.00 0.00 0.00 79 1008.7
20260505080038 0 336 3.2 6.4 0.00 0.00 0.00 79 1008.7
20260505075526 0 336 1.6 4.8 0.00 0.00 0.00 78 1008.8
20260505075026 0 336 1.6 4.8 0.00 0.00 0.00 78 1008.8
20260505074526 0 336 1.6 6.4 0.00 0.00 0.00 77 1008.8
20260505074026 0 338 3.2 6.4 0.00 0.00 0.00 76 1008.8
20260505073523 0 338 1.6 6.4 0.00 0.00 0.00 74 1008.7
20260505073023 0 338 1.6 4.8 0.00 0.00 0.00 73 1008.7
20260505072522 0 338 0.0 3.2 0.00 0.00 0.00 73 1008.7
20260505072021 0 338 0.0 4.8 0.00 0.00 0.00 72 1008.6
20260505071521 0 338 1.6 4.8 0.00 0.00 0.00 72 1008.7
20260505071020 0 338 1.6 4.8 0.00 0.00 0.00 71 1008.6
20260505070521 0 338 1.6 4.8 0.00 0.00 0.00 71 1008.6
20260505070019 0 338 1.6 4.8 0.00 0.00 0.00 70 1008.6
20260505065520 1 338 3.2 8.0 0.00 0.00 0.00 70 1008.6
20260505065017 1 338 3.2 8.0 0.00 0.00 0.00 69 1008.6
20260505064517 1 338 3.2 6.4 0.00 0.00 0.00 69 1008.6
20260505064018 1 338 3.2 8.0 0.00 0.00 0.00 68 1008.5
20260505063516 1 338 3.2 8.0 0.00 0.00 0.00 68 1008.5
20260505063015 1 339 3.2 8.0 0.00 0.00 0.00 69 1008.6
20260505062515 1 339 3.2 8.0 0.00 0.00 0.00 69 1008.6
20260505062014 1 340 3.2 9.7 0.00 0.00 0.00 70 1008.5
20260505061527 1 340 1.6 9.7 0.00 0.00 0.00 70 1008.5
20260505061014 1 341 3.2 12.9 0.00 0.00 0.00 70 1008.4
20260505060513 1 342 4.8 12.9 0.00 0.00 0.00 71 1008.6
20260505060013 1 342 1.6 9.7 0.00 0.00 0.00 71 1008.5
20260505055512 1 346 1.6 8.0 0.00 0.00 0.00 71 1008.5
20260505055011 1 349 3.2 9.7 0.00 0.00 0.00 71 1008.4
20260505054510 1 350 4.8 12.9 0.00 0.00 0.00 70 1008.3
20260505054012 2 350 4.8 12.9 0.00 0.00 0.00 70 1008.3
20260505053512 2 350 6.4 17.7 0.00 0.00 0.00 70 1008.3
20260505053007 2 345 4.8 17.7 0.00 0.00 0.00 71 1008.4
20260505052508 2 338 8.0 16.1 0.00 0.00 0.00 71 1008.3
20260505052005 2 360 9.7 16.1 0.00 0.00 0.00 70 1008.3
20260505051503 2 348 9.7 17.7 0.00 0.00 0.00 71 1008.2
20260505051003 2 355 6.4 17.7 0.00 0.00 0.00 71 1008.2
20260505050504 2 336 4.8 17.7 0.00 0.00 0.00 72 1008.2
20260505041613 3 34 9.7 25.7 0.00 0.00 0.00 75 1007.9
20260505041054 3 337 11.3 25.7 0.00 0.00 0.00 75 1007.8
20260505040553 3 10 14.5 25.7 0.00 0.00 0.00 73 1007.8
20260505040052 3 33 9.7 24.1 0.00 0.00 0.00 72 1007.7
20260505035552 4 329 14.5 24.1 0.00 0.00 0.00 71 1007.6
20260505035052 4 323 9.7 16.1 0.00 0.00 0.00 71 1007.6
20260505034549 4 309 4.8 17.7 0.00 0.00 0.00 70 1007.6
20260505034052 4 340 9.7 19.3 0.00 0.00 0.00 70 1007.6
20260505033547 4 341 11.3 24.1 0.00 0.00 0.00 70 1007.5
20260505033046 4 323 12.9 24.1 0.00 0.00 0.00 69 1007.4
20260505032550 4 302 12.9 20.9 0.00 0.00 0.00 69 1007.4
20260505032045 4 330 11.3 20.9 0.00 0.00 0.00 68 1007.3
20260505031549 4 343 8.0 24.1 0.00 0.00 0.00 68 1007.2
20260505031048 5 323 9.7 24.1 0.00 0.00 0.00 67 1007.3
20260505030548 5 335 8.0 20.9 0.00 0.00 0.00 67 1007.2
20260505030044 5 323 11.3 20.9 0.00 0.00 0.00 67 1007.1
20260505025543 5 348 11.3 25.7 0.00 0.00 0.00 66 1007.2
20260505025041 5 338 12.9 25.7 0.00 0.00 0.00 66 1007.1
20260505024545 5 317 9.7 27.4 0.00 0.00 0.00 66 1007.0
20260505024039 5 339 16.1 27.4 0.00 0.00 0.00 66 1006.9
20260505023538 5 343 4.8 29.0 0.00 0.00 0.00 66 1006.9
20260505023044 5 360 12.9 29.0 0.00 0.00 0.00 66 1006.8
20260505022536 5 360 14.5 25.7 0.00 0.00 0.00 65 1006.7
20260505022034 5 334 14.5 25.7 0.00 0.00 0.00 65 1006.4
20260505021539 5 302 11.3 25.7 0.00 0.00 0.00 66 1006.4
20260505021032 5 331 11.3 19.3 0.00 0.00 0.00 65 1006.2
20260505020531 5 355 8.0 27.4 0.00 0.00 0.00 65 1006.1
20260505020032 5 304 17.7 27.4 0.00 0.00 0.00 64 1006.1
20260505015530 6 321 14.5 24.1 0.00 0.00 0.00 64 1006.0
20260505015033 6 343 12.9 24.1 0.00 0.00 0.00 64 1006.0
20260505014536 6 349 8.0 19.3 0.00 0.00 0.00 63 1005.9
20260505014026 6 337 9.7 20.9 0.00 0.00 0.00 62 1005.8
20260505013529 6 347 11.3 22.5 0.00 0.00 0.00 61 1005.7
20260505013029 6 19 8.0 25.7 0.00 0.00 0.00 60 1005.6
20260505012525 6 327 16.1 25.7 0.00 0.00 0.00 59 1005.5
20260505012025 6 319 11.3 24.1 0.00 0.00 0.00 59 1005.4
20260505011525 6 35 14.5 25.7 0.00 0.00 0.00 58 1005.4
20260505011023 6 332 16.1 27.4 0.00 0.00 0.00 57 1005.4
20260505010523 7 355 16.1 27.4 0.00 0.00 0.00 57 1005.4
20260505010023 7 336 8.0 27.4 0.00 0.00 0.00 57 1005.2
20260505005523 7 337 11.3 27.4 0.00 0.00 0.00 58 1005.2
20260505005024 7 340 14.5 27.4 0.00 0.00 0.00 57 1005.1
20260505004523 7 355 16.1 27.4 0.00 0.00 0.00 56 1005.1
20260505004021 7 348 11.3 33.8 0.00 0.00 0.00 55 1005.1
20260505003519 7 355 12.9 33.8 0.00 0.00 0.00 53 1005.0
20260505003019 7 337 17.7 32.2 0.00 0.00 0.00 51 1005.0
20260505002519 7 338 19.3 32.2 0.00 0.00 0.00 48 1004.9
20260505002018 7 259 16.1 32.2 0.00 0.00 0.00 47 1004.8
20260505001518 8 355 16.1 40.2 0.00 0.00 0.00 48 1004.7
20260505001017 8 326 25.7 40.2 0.00 0.00 0.00 47 1004.8
20260505000517 8 332 17.7 33.8 0.00 0.00 0.00 47 1004.7
20260505000028 8 309 17.7 38.6 0.00 0.00 0.00 47 1004.7
20260504235517 8 297 22.5 38.6 0.00 0.00 0.00 46 1004.6
20260504235017 8 5 12.9 30.6 0.00 0.00 0.00 45 1004.6
20260504234516 8 323 17.7 33.8 0.00 0.00 0.00 44 1004.6
20260504234017 8 329 17.7 38.6 0.00 0.00 0.00 44 1004.4
20260504233515 8 333 14.5 38.6 0.00 0.00 0.00 45 1004.5
20260504233020 8 346 24.1 38.6 0.00 0.00 0.00 44 1004.4
20260504232515 8 323 19.3 37.0 0.00 0.00 0.00 44 1004.5
20260504232016 8 302 12.9 33.8 0.00 0.00 0.00 44 1004.4
20260504231613 8 306 17.7 35.4 0.00 0.00 0.00 44 1004.3
20260504231014 8 324 17.7 43.5 0.00 0.00 0.00 44 1004.3
20260504230513 8 329 24.1 43.5 0.00 0.00 0.00 44 1004.1
20260504230016 8 310 20.9 43.5 0.00 0.00 0.00 43 1004.2
20260504225512 8 279 22.5 40.2 0.00 0.00 0.00 44 1004.2
20260504225011 8 261 19.3 40.2 0.00 0.00 0.00 44 1004.2
20260504224514 8 275 16.1 43.5 0.00 0.00 0.00 45 1004.1
20260504224014 8 323 17.7 43.5 0.00 0.00 0.00 45 1004.0
20260504223512 8 309 22.5 40.2 0.00 0.00 0.00 45 1004.0
20260504223009 8 338 24.1 49.9 0.00 0.00 0.00 45 1003.9
20260504222510 8 315 24.1 49.9 0.00 0.00 0.00 46 1003.9
20260504222008 8 292 8.0 41.8 0.00 0.00 0.00 47 1003.8
20260504221508 9 344 19.3 38.6 0.00 0.00 0.00 46 1003.8
20260504221008 8 270 17.7 37.0 0.00 0.00 0.00 47 1003.7
20260504220508 9 230 17.7 40.2 0.00 0.00 0.00 46 1003.7
20260504220015 8 265 24.1 40.2 0.00 0.00 0.00 47 1003.4
20260504215507 8 350 20.9 40.2 0.00 0.00 0.00 48 1003.6
20260504215007 8 329 19.3 41.8 0.00 0.00 0.00 47 1003.6
20260504214509 8 325 20.9 41.8 0.00 0.00 0.00 47 1003.5
20260504214010 8 328 20.9 38.6 0.00 0.00 0.00 48 1003.3
20260504213506 9 12 17.7 35.4 0.00 0.00 0.00 51 1003.4
20260504213009 8 319 17.7 46.7 0.00 0.00 0.00 50 1003.4
20260504212508 8 338 9.7 33.8 0.00 0.00 0.00 52 1003.4
20260504212004 8 299 16.1 37.0 0.00 0.00 0.00 53 1003.4
20260504211504 8 321 20.9 37.0 0.00 0.00 0.00 53 1003.4
20260504211004 8 339 19.3 33.8 0.00 0.00 0.00 52 1003.5
20260504210503 8 317 11.3 49.9 0.00 0.00 0.00 52 1003.3
20260504210004 8 306 24.1 49.9 0.00 0.00 0.00 51 1003.2
20260504205503 8 300 16.1 35.4 0.00 0.00 0.00 52 1003.3
20260504205005 8 288 22.5 37.0 0.00 0.00 0.00 52 1003.3
20260504204502 8 344 14.5 40.2 0.00 0.00 0.00 52 1003.3
20260504204002 8 279 17.7 40.2 0.00 0.00 0.00 51 1003.3
20260504203503 8 340 16.1 35.4 0.00 0.00 0.00 50 1003.3
20260504203005 8 355 16.1 33.8 0.00 0.00 0.00 49 1003.3
20260504202504 9 304 12.9 32.2 0.00 0.00 0.00 49 1003.3
20260504202002 8 355 11.3 30.6 0.00 0.00 0.00 49 1003.3
20260504201501 8 265 14.5 35.4 0.00 0.00 0.00 48 1003.2
20260504201003 8 5 19.3 37.0 0.00 0.00 0.00 48 1003.3
20260504200501 8 66 12.9 37.0 0.00 0.00 0.00 47 1003.1
20260504195600 8 325 12.9 33.8 0.00 0.00 0.00 48 1003.2
20260504195502 8 345 12.9 33.8 0.00 0.00 0.00 47 1003.1
20260504195101 8 267 8.0 33.8 0.00 0.00 0.00 47 1003.2
20260504194610 8 320 17.7 33.8 0.00 0.00 0.00 47 1003.2
20260504194100 8 318 16.1 29.0 0.00 0.00 0.00 50 1003.2
20260504193559 8 294 17.7 35.4 0.00 0.00 0.00 50 1003.3
20260504193059 8 310 20.9 38.6 0.00 0.00 0.00 50 1003.3
20260504192600 8 339 12.9 38.6 0.00 0.00 0.00 51 1003.3
20260504192058 8 288 14.5 32.2 0.00 0.00 0.00 51 1003.3
20260504191559 7 310 19.3 32.2 0.00 0.00 0.00 52 1003.3
20260504191057 7 295 14.5 33.8 0.00 0.00 0.00 53 1003.2
20260504190557 7 282 16.1 33.8 0.00 0.00 0.00 52 1003.3
20260504190156 7 256 16.1 33.8 0.00 0.00 0.00 53 1003.2
20260504185556 7 341 17.7 37.0 0.00 0.00 0.00 53 1003.3
20260504185055 7 321 22.5 53.1 0.00 0.00 0.00 54 1003.2
20260504184558 7 323 29.0 51.5 0.00 0.00 0.00 54 1003.0
20260504184058 7 323 19.3 40.2 0.00 0.00 0.00 55 1003.0
20260504183555 7 316 20.9 40.2 0.00 0.00 0.00 55 1003.0
20260504183054 7 283 22.5 32.2 0.00 0.00 0.00 53 1003.0
20260504182553 7 278 9.7 38.6 0.00 0.00 0.00 53 1002.8
20260504182052 7 350 22.5 38.6 0.00 0.00 0.00 54 1002.8
20260504181557 7 311 19.3 37.0 0.00 0.00 0.00 56 1002.7
20260504181052 7 277 14.5 35.4 0.00 0.00 0.00 57 1002.8
20260504180143 7 281 20.9 45.1 0.00 0.00 0.00 55 1002.6
20260504175551 7 298 24.1 49.9 0.00 0.00 0.00 57 1002.7
20260504175059 7 298 19.3 49.9 0.00 0.00 0.00 59 1002.7
20260504174551 7 324 30.6 48.3 0.00 0.00 0.00 58 1002.4
20260504174054 7 284 24.1 46.7 0.00 0.00 0.00 60 1002.4
20260504173549 7 331 24.1 45.1 0.00 0.00 0.00 59 1002.5